Accueil
METAR-TAF:

METAR-TAF

Aéroports :

Plate-forme pétrolière

Hoorn-a, Pays-Bas

latitude: 52-55-05N, longitude: 4-09-01E, altitude: 41 m

Observation

Le bulletin a été fait il y a 26 minutes, à 05:55 UTC
Vent 6 kt de sud-ouest, variant entre sud et ouest
Température 6°C
Humidité 70%
Pression 1033 hPa
Visibilité 10 km ou plus
Ciel couvert à une hauteur de 1700 ft

METAR: EHQE 240555Z AUTO 23006KT 180V270 9999 OVC017 06/01 Q1033

Heure: 07:21 (06:21 UTC)


TAF: absent

Observations et prévisions météorologiques de plus de 4000 aéroports (messages METAR et TAF).

Les stations disponibles sont représentées par des disques jaunes et rouges sur la carte.

Passer la souris dessus pour voir le nom de la station.

Cliquer dessus pour voir les observations et prévisions météorologiques.

Pour changer de carte: cliquez sur les boutons verts avec une croix noire pour zoomer, sur le bouton vert avec un tiret pour effectuer un zoom arrière, ou sur les flèches vertes pour les cartes adjacentes.


METAR-TAF: